Theta_e
351 350 350 349 349 349 349 349 349 349 349 349 348 347 347 346 344 345 346 344 344 344 343 342 342 341 341 341 341 341 341 341 341 339 339 336 336 334 334 332 331 330 331 330 330 330 329 328 327 327 328 326 326 325 322 322 322 320 319 317 316 318 319 317 312 312 316 318 315 312 311 311 309 309 308 309 309 310 308 310 312 311 310 311 311
349 349 349 350 350 348 348 349 349 349 349 349 349 347 347 346 346 345 345 344 344 342 343 342 342 341 341 338 339 341 341 341 340 339 336 335 335 335 334 332 331 330 330 329 328 328 328 327 326 326 326 323 323 321 320 319 318 316 316 316 315 316 319 314 309 310 312 314 312 310 311 311 307 309 307 309 309 310 307 307 310 310 309 310 312
349 350 349 349 349 348 348 348 348 349 349 349 349 347 347 348 346 345 344 344 344 343 343 343 342 342 340 339 339 340 340 339 339 337 336 334 333 333 333 332 331 330 329 328 326 326 325 325 324 324 324 322 321 321 319 317 316 314 313 313 314 313 314 313 311 310 313 311 313 309 309 309 308 307 307 308 309 308 307 307 308 310 310 310 310
351 351 350 350 349 348 347 348 348 347 348 348 348 349 348 347 346 345 344 344 343 344 344 343 341 340 339 338 338 338 338 339 338 336 335 334 333 332 332 331 330 329 327 326 325 324 323 323 323 323 322 320 319 317 316 315 313 311 312 312 312 313 315 315 315 316 312 309 310 307 309 308 305 308 308 308 308 309 308 308 308 308 310 310 310
350 350 351 349 348 347 347 347 347 347 348 348 349 349 349 347 346 344 344 344 344 344 344 343 341 341 340 338 337 337 338 338 336 335 335 335 334 333 331 329 329 329 328 326 326 323 323 322 322 322 320 319 319 314 315 314 312 312 312 312 312 315 316 316 315 314 312 310 309 308 310 308 308 307 306 305 307 308 309 308 307 308 310 312 312
347 350 350 348 347 347 347 347 346 347 347 348 348 349 349 347 345 345 344 343 344 344 343 341 341 340 340 339 337 337 338 338 336 335 334 335 334 332 331 329 329 329 327 326 324 323 322 321 321 321 319 318 316 315 315 314 312 312 311 310 311 317 316 313 312 310 310 310 310 307 309 307 307 308 307 306 305 305 306 308 310 309 309 309 311
341 348 348 348 346 346 346 345 346 346 347 347 349 349 348 348 346 344 343 344 344 344 343 342 342 340 340 340 338 337 337 337 337 336 335 335 333 331 329 329 329 328 327 325 323 322 321 321 321 320 318 317 316 315 314 314 313 312 311 311 314 313 310 308 308 309 309 309 308 308 307 307 308 306 307 307 307 304 304 305 306 309 311 310 309
346 348 347 346 346 346 346 346 346 346 347 347 347 349 348 348 346 344 344 344 344 344 342 341 342 341 341 340 339 338 338 337 337 337 335 333 331 329 328 328 327 326 326 324 322 321 320 320 320 319 318 317 317 315 316 313 313 312 311 313 313 309 306 308 308 307 306 308 307 306 306 306 306 308 309 308 306 305 307 306 304 304 306 310 310
347 346 346 345 346 345 346 346 346 346 345 345 346 346 347 347 346 344 344 344 344 343 343 342 342 341 341 340 338 338 338 338 337 335 334 331 329 327 327 326 326 325 323 322 321 320 319 320 320 319 318 319 316 315 315 314 313 311 313 313 311 307 307 308 307 306 306 307 306 307 306 306 306 305 305 305 304 306 311 310 306 306 308 308 309
344 345 343 344 346 345 345 346 345 345 344 344 345 346 347 346 345 344 343 343 343 343 342 342 341 341 340 339 339 338 337 337 328 319 319 329 329 327 326 326 327 326 322 321 320 318 318 318 319 319 316 312 308 304 303 305 309 317 313 312 309 307 307 307 306 306 306 305 304 305 305 305 305 307 307 308 309 309 306 306 305 308 308 307 308
341 345 343 345 345 345 345 345 344 343 343 343 344 345 345 345 345 343 343 342 342 342 342 341 341 341 340 338 338 338 337 335 310 307 308 312 325 328 326 326 327 326 321 320 318 317 318 317 319 316 314 311 309 301 301 301 300 299 300 305 312 317 309 308 307 307 305 305 305 306 305 305 306 308 308 308 309 307 306 308 307 306 305 304 302
334 343 344 345 345 344 344 344 343 343 343 342 342 343 345 344 343 343 342 341 342 343 342 341 340 341 340 339 338 337 338 313 304 305 305 306 314 327 327 326 326 323 321 319 318 317 317 317 317 315 314 313 312 310 306 300 297 297 297 297 295 294 297 312 312 308 307 305 305 306 306 306 307 309 307 307 307 308 308 307 307 306 306 305 304
337 342 343 345 345 344 344 344 343 342 342 342 342 343 343 344 343 342 341 342 342 341 341 341 340 340 340 338 337 336 335 304 304 303 303 304 306 318 326 326 324 323 321 318 317 317 316 316 315 314 313 313 311 310 308 307 301 298 299 299 299 297 293 292 294 312 311 308 307 307 307 307 307 308 309 308 309 308 307 305 306 307 308 305 305
339 342 343 344 344 344 344 343 342 342 342 341 341 341 342 342 342 342 341 340 341 340 341 340 340 339 339 338 337 335 332 305 302 302 302 302 303 311 326 325 324 323 320 318 318 317 316 315 315 313 313 311 310 308 308 307 306 306 306 307 309 307 296 296 297 294 303 313 311 309 310 310 308 309 311 310 308 305 305 306 308 307 307 305 306
339 342 342 343 343 344 343 342 341 341 341 341 341 340 341 341 342 341 340 339 339 339 338 339 339 338 339 338 336 334 330 302 301 301 301 301 301 308 328 325 324 323 321 319 318 317 316 316 316 313 312 310 310 309 309 308 307 307 306 305 305 307 308 309 310 310 310 312 314 312 312 311 311 311 312 311 309 307 308 308 308 306 305 307 308
337 338 340 342 342 343 343 341 340 341 341 340 340 339 340 341 341 340 339 339 340 339 339 338 338 338 338 337 335 333 323 299 300 300 300 300 300 321 326 327 325 322 320 318 317 316 316 316 315 312 312 310 307 300 305 309 308 307 305 305 304 305 306 310 302 304 313 316 316 313 310 305 301 311 309 313 311 311 310 309 308 308 306 305 305
336 338 340 342 341 341 342 341 340 341 340 339 339 339 339 340 341 341 339 338 338 338 337 337 338 337 336 335 335 333 320 302 299 299 299 299 305 321 324 324 322 320 319 318 316 316 316 316 315 313 313 311 304 297 298 304 308 306 304 304 304 306 306 313 297 295 294 293 292 292 292 292 292 292 293 293 305 305 305 302 302 304 304 302 303
336 336 338 340 340 342 342 341 340 340 339 338 338 339 340 341 340 339 337 336 336 336 337 336 337 336 336 335 335 333 322 306 298 298 299 299 309 320 322 324 320 319 317 317 316 316 316 313 315 314 314 314 297 296 296 306 308 306 304 304 304 305 307 310 309 309 293 293 294 293 293 291 291 291 292 292 290 298 303 300 304 304 302 302 301
337 338 339 341 341 341 341 340 340 340 338 338 340 338 339 339 339 338 338 338 337 337 334 335 335 335 335 336 325 330 323 307 297 298 298 299 310 320 320 319 318 317 316 315 316 316 315 314 312 312 315 308 295 296 296 304 309 306 307 305 304 305 307 311 309 307 308 307 307 310 306 300 306 307 306 292 293 299 305 304 304 302 301 301 302
333 330 335 341 340 340 341 341 340 340 339 339 339 339 340 339 338 337 337 336 336 335 333 334 334 334 335 334 333 332 323 312 303 296 298 298 304 319 320 318 316 315 316 314 314 314 315 314 311 300 298 295 295 294 295 299 308 308 307 306 305 305 308 309 311 310 309 306 306 306 305 305 306 306 306 309 304 305 306 305 304 303 302 303 303
333 331 333 338 338 338 339 339 338 339 339 339 340 339 339 338 337 336 336 336 335 333 333 333 334 334 334 334 331 332 325 314 305 296 297 298 301 309 318 318 317 315 315 313 313 312 312 312 312 297 294 294 294 294 295 296 300 309 309 307 308 310 305 307 309 309 309 307 306 306 305 305 305 305 305 306 307 307 306 306 305 305 304 303 302
337 337 337 336 336 336 336 337 339 339 340 340 340 338 337 336 337 337 336 336 334 332 331 330 332 333 333 332 331 331 323 310 309 297 296 298 300 304 316 318 316 315 314 313 312 312 311 312 311 298 293 293 294 294 294 295 294 309 313 296 293 295 307 306 309 309 307 307 305 304 305 304 304 305 306 307 307 308 309 308 307 306 306 306 304
336 337 336 336 337 337 338 339 340 341 341 340 338 336 335 335 336 336 335 335 333 331 328 329 330 330 332 331 331 331 327 313 302 302 296 296 298 301 304 311 302 315 314 312 312 310 313 314 309 295 293 293 293 293 294 294 295 303 290 292 294 294 300 306 308 308 305 304 305 305 304 305 305 305 305 306 308 309 308 310 310 309 309 309 309
337 337 337 337 337 337 337 339 341 341 339 337 335 335 335 336 336 335 335 332 330 329 327 327 327 327 327 327 328 328 323 316 302 299 299 295 297 299 298 300 301 313 315 312 311 311 313 313 306 293 292 292 292 292 293 293 300 291 290 291 292 297 304 304 304 306 304 301 301 302 304 305 305 304 304 307 307 309 309 309 309 310 310 311 310
338 337 337 337 338 337 337 339 339 339 338 337 334 333 335 335 334 333 333 331 329 327 326 325 325 325 325 325 325 327 321 315 309 301 296 295 295 296 295 295 299 301 311 313 313 313 305 299 294 292 292 292 291 291 292 292 292 291 290 290 299 304 303 302 302 303 301 301 301 302 302 303 305 305 308 309 310 310 309 309 310 311 312 309 308
333 336 336 337 338 339 339 339 338 337 336 335 333 333 333 333 331 331 332 331 330 328 326 325 325 326 326 327 324 325 323 314 310 305 299 298 297 295 294 295 299 300 305 310 299 295 294 294 293 292 292 292 296 298 298 298 292 291 290 295 305 303 302 303 304 303 302 302 301 301 302 304 304 306 308 309 308 306 307 307 307 306 307 306 305
327 334 337 337 338 339 338 338 337 337 336 334 334 334 334 332 330 327 329 329 328 326 324 324 325 325 325 325 324 324 323 313 308 304 302 301 301 300 300 301 298 299 306 302 299 301 296 298 297 295 295 293 295 295 296 295 295 297 299 300 302 303 304 305 305 305 305 303 302 302 302 303 305 305 304 305 305 305 307 306 305 304 305 305 305
326 332 337 337 337 337 336 316 326 335 334 334 333 333 332 331 329 327 328 328 327 325 323 323 325 325 323 323 322 317 314 310 307 304 302 301 302 302 304 305 306 308 309 309 309 305 303 296 295 300 299 299 300 300 301 300 298 298 299 299 299 302 303 303 303 308 308 307 306 305 303 303 301 302 303 304 304 305 307 304 303 303 304 306 304
322 327 334 337 334 335 337 334 334 333 332 332 333 332 330 329 329 329 331 330 329 327 325 324 325 327 326 324 320 316 314 311 309 301 304 298 300 302 304 306 307 308 306 302 308 306 303 302 302 301 300 300 300 301 301 302 300 300 301 303 303 304 305 305 305 305 306 307 307 305 302 302 301 302 302 302 304 305 306 305 306 305 306 305 303
322 322 324 330 334 334 334 332 334 332 332 331 331 328 309 314 323 331 329 314 308 308 310 323 326 327 326 326 323 318 316 316 302 298 297 296 297 298 300 301 300 305 300 298 303 306 305 304 303 302 301 301 301 300 301 303 303 302 303 299 304 305 305 305 305 306 307 306 306 305 303 302 301 301 302 301 302 303 303 300 305 306 304 303 302
323 323 322 323 326 331 331 331 332 332 332 331 329 321 319 310 294 291 301 311 305 304 304 306 306 309 323 327 320 307 307 302 297 297 295 295 296 296 297 298 297 297 296 301 307 304 303 302 303 303 302 302 301 302 302 302 300 302 304 304 305 305 303 306 306 304 302 304 303 306 305 302 301 302 300 300 302 302 304 302 304 305 304 303 302
322 323 323 324 322 323 329 331 332 332 331 330 328 322 319 318 315 299 293 302 301 301 302 301 302 303 304 311 315 318 298 296 296 296 295 295 295 296 296 296 296 296 295 298 302 303 303 303 302 303 303 302 301 302 303 304 304 304 304 303 303 304 305 305 307 308 307 306 300 300 301 303 302 301 301 299 299 303 303 304 305 303 304 304 303
323 323 322 322 323 319 324 326 324 328 327 327 327 323 322 318 317 314 305 295 297 299 299 299 301 301 301 303 304 306 302 297 295 295 295 295 295 295 295 296 296 295 295 299 302 302 303 304 303 304 304 303 304 304 304 305 305 305 305 305 304 305 306 308 309 308 306 306 304 302 300 299 299 298 297 299 299 299 300 302 303 303 302 302 299
327 323 323 325 326 325 328 329 327 325 324 324 325 325 322 322 322 317 311 309 307 301 298 297 299 298 299 299 300 298 296 295 295 295 294 294 294 294 295 296 295 295 298 302 305 303 304 304 304 304 305 305 305 304 304 305 305 306 306 307 307 308 308 309 308 306 304 304 305 301 300 301 299 297 297 300 300 300 297 298 300 298 297 300 300
325 310 299 307 324 328 330 329 329 329 330 328 326 325 323 321 318 315 314 310 310 310 311 309 298 299 304 298 295 295 294 294 294 294 294 293 293 293 295 298 296 297 300 305 305 305 304 304 304 305 306 306 306 306 306 307 306 306 307 307 307 307 308 307 306 307 305 306 305 303 301 301 302 299 297 297 298 298 296 296 299 299 300 301 301
324 322 321 317 321 323 324 325 326 327 327 328 327 326 320 318 316 317 315 314 314 312 306 305 304 296 296 296 294 294 294 294 293 293 293 293 293 294 298 298 299 300 301 304 305 306 306 305 306 307 308 309 309 308 308 307 307 307 308 308 306 307 308 307 304 305 308 307 304 302 301 303 302 301 301 301 302 300 299 297 297 297 299 300 297
323 323 321 320 321 321 321 322 323 321 314 316 319 320 317 316 314 316 314 313 310 308 306 306 305 302 297 297 294 293 293 293 293 292 292 293 293 298 302 301 301 302 302 304 304 304 306 309 308 309 309 309 309 309 308 309 309 309 305 308 308 308 308 307 307 305 305 303 302 304 303 300 302 303 300 300 299 300 300 299 298 296 296 296 295
320 316 317 320 322 321 321 322 317 302 312 316 319 318 314 314 313 311 310 310 307 307 306 307 301 305 302 298 297 297 294 292 292 292 292 292 293 301 303 302 302 302 302 304 305 305 307 308 309 310 309 310 309 309 309 309 309 311 310 308 307 307 301 304 299 308 301 303 302 302 302 302 302 302 300 300 299 298 298 297 298 298 296 295 295
317 298 292 295 303 317 318 314 314 317 314 315 314 312 309 311 310 310 311 308 307 308 306 308 307 306 304 300 298 296 294 294 294 293 293 296 298 302 304 303 303 303 304 306 306 307 308 308 311 311 309 309 310 311 310 310 311 311 310 308 307 307 305 305 303 302 303 303 303 303 303 302 302 301 301 300 299 298 298 296 296 296 295 295 297
314 314 305 296 308 307 309 311 313 312 311 312 310 310 309 310 309 308 309 307 307 307 309 308 308 309 304 300 297 298 297 296 295 295 295 296 298 302 304 303 303 303 303 306 306 308 310 309 309 309 309 310 311 311 311 311 311 309 309 306 304 304 305 304 304 304 303 303 303 303 302 300 301 300 300 300 300 299 298 297 296 295 296 296 296
311 310 302 299 298 309 307 310 310 311 312 309 310 309 309 308 310 306 309 307 307 306 308 309 311 309 302 296 295 296 299 298 297 296 296 298 299 303 305 304 304 305 305 306 307 307 309 311 310 309 309 310 311 311 312 311 310 309 309 306 306 304 305 305 303 303 303 302 302 301 301 300 300 300 299 300 298 299 299 299 298 297 296 295 296
310 308 307 307 308 306 305 304 306 304 306 307 309 309 307 306 308 308 305 305 302 305 307 308 308 304 297 293 294 295 301 301 299 298 298 300 302 304 305 306 307 308 308 307 309 309 310 310 310 311 311 311 311 311 311 310 309 309 309 307 305 303 304 304 303 301 301 302 300 300 299 299 299 299 299 297 300 300 299 299 297 297 296 296 296
306 306 306 304 306 305 305 305 306 306 306 306 306 301 304 307 308 308 305 304 304 304 305 304 302 299 295 292 293 293 301 301 295 299 300 301 303 304 306 307 309 311 311 312 311 311 311 310 310 309 308 309 311 310 308 303 307 307 306 306 305 304 304 303 303 302 301 301 300 298 297 298 299 300 300 299 299 299 298 298 297 296 295 296 295
308 307 306 304 305 305 306 305 303 303 302 298 300 301 304 303 304 305 306 304 304 303 303 301 299 297 296 294 294 302 305 303 302 302 301 302 303 304 308 309 311 310 310 311 313 312 310 310 309 310 311 311 310 312 311 310 310 306 306 305 304 303 303 302 302 302 301 301 299 298 298 298 298 299 298 298 299 298 297 296 296 295 295 296 297
310 308 308 306 306 305 303 303 302 302 300 303 303 303 304 304 304 303 303 303 300 301 299 298 297 296 296 298 300 306 305 303 299 300 301 303 305 307 308 308 308 309 310 311 314 314 311 311 310 309 310 312 310 313 310 310 310 310 309 307 301 301 303 302 303 302 301 299 300 299 298 298 298 299 299 299 297 296 296 295 295 293 294 295 297
309 308 307 307 305 304 304 305 302 305 305 304 303 303 303 303 303 301 301 301 300 298 298 297 297 297 296 299 300 299 301 302 302 302 301 302 304 305 306 307 308 309 309 309 310 310 308 309 306 305 305 307 309 309 309 310 308 309 308 308 306 305 305 305 305 302 299 299 299 299 298 298 297 297 295 297 297 296 295 295 295 295 295 295 296
308 307 306 306 305 305 305 307 305 304 304 303 303 303 302 303 302 300 297 298 298 297 298 298 297 298 299 300 300 299 300 300 301 302 302 303 305 306 307 307 308 309 310 308 310 308 309 308 307 301 302 308 308 308 307 306 305 305 305 305 306 305 305 304 303 303 302 302 300 299 298 297 297 296 295 295 294 294 295 295 295 294 296 296 297
309 308 307 306 307 307 307 308 306 300 304 303 302 301 300 301 301 301 300 300 300 299 298 299 299 299 298 300 300 301 301 302 302 301 302 302 304 306 307 307 302 307 308 308 308 307 308 306 308 306 303 304 301 305 306 306 305 305 304 304 303 304 301 297 303 303 302 302 301 298 296 296 296 295 296 296 294 295 295 296 296 296 296 296 297
309 307 306 306 306 306 307 309 308 307 306 305 303 304 303 303 302 303 302 301 300 299 300 299 300 300 301 301 301 301 302 300 302 302 302 304 305 307 307 306 303 308 307 305 305 306 307 307 301 303 303 304 304 305 306 306 307 305 304 303 301 294 293 294 298 302 298 302 300 299 299 299 298 296 297 296 297 297 297 296 296 296 296 296 297
312 309 309 310 310 310 309 310 310 312 308 309 308 307 305 304 305 303 304 303 303 302 302 301 301 302 302 301 301 302 302 302 302 303 304 304 305 306 306 307 307 306 304 304 305 306 306 306 305 303 302 302 303 304 304 304 304 304 304 304 292 291 292 292 292 293 300 301 301 300 299 299 300 299 299 297 298 296 297 297 296 296 297 297 297
303 304 308 311 311 311 311 311 311 311 311 309 309 309 308 308 307 305 304 304 303 303 303 304 303 302 302 302 300 301 301 302 304 304 303 303 303 303 304 304 303 304 304 304 304 303 304 304 303 302 302 300 303 303 302 302 302 303 298 291 290 292 291 292 301 293 294 296 299 299 299 298 297 298 298 299 297 299 296 296 297 297 297 297 297
Wind_Speed
18 17 16 17 17 17 16 17 19 18 19 19 17 18 15 15 16 15 14 16 16 16 17 17 17 17 16 15 16 13 13 12 11 11 11 11 10 11 11 11 11 11 10 11 10 10 10 10 11 11 8 8 8 7 7 8 8 7 6 6 7 6 5 6 6 4 3 3 3 4 4 4 6 7 7 5 7 6 8 5 5 5 5 4 10
17 17 17 17 19 17 17 16 16 17 18 19 17 18 17 15 13 14 16 18 17 17 17 15 16 17 16 17 16 15 15 14 13 11 11 12 10 9 12 12 13 11 11 11 11 9 9 11 11 11 9 9 8 8 8 7 7 7 7 6 6 6 6 7 7 5 7 5 3 2 4 6 6 6 4 3 4 2 5 4 4 6 4 4 5
18 17 17 18 19 17 17 17 17 18 19 18 19 19 17 15 15 15 15 16 17 17 17 17 18 19 18 17 17 15 15 14 12 13 12 14 13 12 13 13 13 12 11 11 11 10 10 10 10 9 7 9 8 7 7 7 6 7 7 7 6 6 6 7 6 7 8 6 5 7 7 6 6 5 6 5 5 5 5 6 5 4 4 4 5
17 18 18 18 18 18 18 17 18 18 19 18 20 19 17 15 15 15 16 16 17 15 17 19 18 18 18 17 17 15 15 14 14 13 15 15 15 14 12 11 11 11 10 10 10 10 10 10 10 9 9 9 8 7 6 6 6 6 7 5 6 5 5 5 5 2 7 5 7 7 7 5 5 6 4 4 5 5 5 4 2 4 4 5 6
17 18 18 19 19 19 19 18 18 18 18 18 20 19 18 16 15 17 17 17 17 17 16 17 18 18 17 19 19 16 15 15 15 13 13 13 14 14 12 11 10 10 10 10 10 10 10 10 10 10 9 9 8 8 7 8 6 6 6 5 5 5 4 4 3 4 4 5 6 5 5 5 5 5 5 5 6 7 6 5 5 5 4 3 4
18 18 17 18 19 20 19 18 19 19 20 19 20 18 17 16 16 16 18 19 18 17 18 17 17 19 19 19 19 18 16 15 16 16 16 15 14 14 11 11 10 10 10 10 10 10 10 11 10 10 10 9 9 8 8 9 7 6 7 6 6 6 4 4 4 4 5 5 5 5 4 5 5 4 5 4 4 4 3 4 5 5 5 6 5
20 17 17 18 17 19 19 19 18 19 18 19 17 17 18 16 16 18 16 17 18 18 17 18 15 18 19 19 19 19 17 15 16 16 17 16 15 13 11 10 11 10 10 10 10 10 10 10 10 10 10 10 9 9 8 9 7 7 7 6 6 7 6 5 6 7 6 6 5 5 5 5 5 5 6 3 1 4 4 4 5 4 4 4 5
18 17 17 17 17 18 18 18 19 19 17 18 18 16 18 18 18 17 15 16 18 19 19 18 14 16 18 18 18 16 15 14 16 16 16 16 13 12 11 10 10 10 10 10 10 10 11 10 10 10 10 10 9 9 9 9 7 7 6 6 6 6 6 6 6 6 6 6 6 6 6 6 5 4 1 4 4 5 5 3 4 4 5 4 5
18 17 17 17 17 17 17 17 16 17 17 18 19 18 17 16 16 15 14 15 14 18 18 17 16 18 19 19 19 17 16 15 15 15 16 15 13 12 12 11 10 10 10 11 10 11 10 10 10 10 10 9 11 9 9 8 8 8 7 7 7 7 6 6 6 6 6 6 6 5 5 5 5 5 5 4 5 3 3 1 3 5 5 6 5
18 18 18 18 18 18 18 16 17 17 18 18 19 20 18 16 15 15 16 17 17 17 17 15 16 17 19 19 18 16 14 14 13 18 16 13 13 11 10 10 11 11 10 11 11 11 11 10 9 11 9 10 10 10 10 9 8 3 7 8 8 7 7 7 7 7 6 6 6 6 6 5 5 5 5 5 3 1 2 3 5 4 4 6 6
18 18 19 18 18 19 18 18 18 19 19 19 20 21 20 15 16 18 16 16 17 17 16 16 14 17 19 20 20 17 14 11 18 19 17 16 14 12 12 11 12 12 11 11 11 11 11 11 8 10 11 10 10 11 9 8 8 8 10 9 6 2 7 8 6 7 7 6 6 5 5 5 5 4 4 4 3 3 3 3 3 4 5 5 6
21 20 18 18 19 20 18 19 19 19 19 20 20 20 17 17 16 16 15 17 16 17 18 16 14 15 16 19 19 15 12 15 22 20 18 18 14 12 11 11 11 11 11 11 10 11 11 11 9 9 9 11 10 9 8 8 8 8 9 9 9 9 9 3 4 6 6 5 5 5 5 5 4 4 4 3 3 4 4 4 4 5 5 5 5
22 19 18 19 19 18 18 19 20 19 19 20 19 19 19 17 19 17 17 15 15 17 18 15 14 17 16 19 17 15 11 18 21 22 19 18 16 14 11 11 11 11 11 12 12 11 11 10 9 9 9 12 11 11 10 7 7 7 7 7 8 8 7 8 8 5 2 5 4 4 5 4 4 4 4 2 1 2 2 3 4 4 4 5 5
20 19 19 19 19 19 19 19 20 20 20 19 20 20 20 21 19 16 14 12 12 15 19 17 14 15 17 18 16 14 12 19 22 22 21 19 18 14 12 12 10 12 12 12 11 11 11 10 10 10 9 11 10 12 11 10 8 6 5 5 5 5 5 5 3 2 3 2 3 4 4 2 3 1 3 2 2 3 3 4 4 4 5 6 7
20 19 19 19 19 19 20 20 20 20 20 20 19 21 20 20 18 15 12 14 15 15 17 16 13 14 16 18 14 15 11 23 22 22 21 20 19 14 11 11 10 11 11 11 11 11 11 11 10 11 11 12 10 13 11 11 10 8 8 7 7 7 5 5 4 3 2 2 2 3 1 4 3 2 4 4 3 3 3 4 4 5 6 7 9
20 19 19 19 20 20 20 20 20 19 20 20 20 21 22 20 19 18 15 14 15 15 11 13 14 15 15 18 14 15 12 24 23 22 22 20 20 10 10 12 12 11 11 11 11 11 11 11 11 11 12 13 11 14 11 11 10 9 9 7 7 6 7 3 3 4 5 2 4 6 6 6 7 7 6 3 2 1 3 4 5 6 7 8 7
20 19 19 20 20 20 20 21 20 20 20 20 21 22 21 22 19 15 13 11 14 14 13 12 13 13 15 18 16 14 13 21 24 23 23 22 16 10 10 9 10 11 11 11 11 11 11 12 11 11 12 12 13 14 12 12 10 10 8 8 8 7 7 5 6 7 8 10 8 8 7 7 7 7 8 8 5 4 3 5 5 5 6 6 6
18 19 19 19 19 19 20 21 20 20 20 21 21 20 20 18 20 16 16 17 14 13 12 13 12 13 16 20 17 14 12 18 24 23 23 23 19 13 11 12 11 11 11 11 10 10 12 14 13 11 12 11 17 15 14 12 10 10 10 10 9 8 8 7 5 4 4 5 6 5 3 2 3 3 4 4 3 1 4 6 5 5 6 6 7
16 16 18 19 19 19 19 20 20 20 20 19 18 20 18 19 16 14 15 14 13 12 12 12 13 12 15 17 15 13 12 17 23 23 23 23 18 11 12 11 12 11 11 11 11 10 10 10 12 11 11 13 20 15 14 12 10 10 9 9 10 10 8 9 8 8 7 7 6 5 5 5 4 5 6 9 7 5 5 7 6 6 7 6 6
16 18 20 18 16 17 16 18 18 18 19 17 17 19 15 13 11 13 13 14 12 12 12 12 14 16 16 16 11 11 12 13 18 23 23 23 21 14 11 11 11 12 11 11 11 10 10 10 10 3 12 20 18 17 14 13 9 9 9 9 9 9 8 8 8 8 8 8 7 7 8 7 7 8 7 7 6 8 7 8 8 7 7 7 7
19 19 18 16 17 19 18 19 19 18 19 18 15 16 14 11 12 14 14 12 12 13 14 16 16 15 14 15 12 13 10 13 16 23 23 24 22 17 12 12 12 12 11 11 11 11 10 11 9 11 17 18 17 17 15 14 7 6 8 7 7 6 8 7 7 7 7 8 8 7 7 7 7 7 8 8 8 8 9 9 9 9 8 8 7
15 15 16 18 18 18 18 16 16 15 17 15 13 12 10 13 13 15 14 13 11 15 13 12 11 13 12 14 13 14 13 18 14 20 23 24 23 19 12 12 12 12 12 11 11 10 10 10 8 12 17 16 16 16 15 14 9 4 6 6 9 10 7 7 7 8 6 6 7 7 7 7 8 8 8 8 8 9 9 9 10 10 9 8 8
16 16 16 16 16 17 17 15 13 12 12 15 15 12 12 14 14 14 14 13 12 12 13 11 13 13 12 11 12 14 12 14 20 17 20 22 24 19 17 13 13 11 11 11 11 11 9 9 10 18 18 18 16 16 15 14 12 3 7 10 8 8 3 6 6 7 7 7 7 7 7 8 8 8 8 8 7 8 8 9 9 9 9 9 9
15 16 15 16 16 16 16 15 13 14 13 13 13 13 15 14 14 11 11 10 10 11 11 10 8 8 9 9 9 12 9 10 17 22 20 23 22 22 14 13 16 11 9 9 10 10 11 10 12 20 18 17 17 16 16 14 9 10 5 8 10 6 7 6 5 5 6 7 8 8 8 7 7 7 7 7 7 7 8 8 8 9 8 7 7
15 16 17 16 16 17 15 13 12 12 13 12 13 14 14 14 12 11 14 12 13 13 11 11 11 12 11 11 10 12 10 10 10 16 23 22 21 18 12 11 17 14 9 8 9 10 9 17 21 19 18 18 18 17 13 13 13 11 9 7 6 6 7 7 7 7 7 8 8 8 8 7 7 7 6 6 5 5 5 5 4 4 5 7 9
18 16 15 15 16 16 13 13 14 15 13 13 14 12 13 13 11 11 10 16 16 16 14 13 13 13 13 11 11 13 12 9 10 12 13 18 17 16 7 12 16 14 10 8 10 14 18 20 21 19 17 15 12 8 7 8 10 10 10 7 6 7 8 8 7 7 7 7 7 7 7 6 7 7 6 5 5 6 6 6 6 7 8 8 8
15 14 13 13 12 11 14 13 14 14 13 11 11 13 10 9 10 12 15 13 13 13 11 13 14 14 12 12 13 10 11 10 9 9 10 9 9 12 6 7 12 12 10 9 10 9 14 15 13 14 11 15 14 11 10 10 9 5 6 6 7 8 8 8 8 8 7 7 7 7 7 6 6 6 6 7 7 7 6 6 6 7 7 7 7
16 16 14 13 12 13 15 14 15 11 11 14 15 12 8 9 10 12 15 15 15 11 11 14 16 15 14 14 9 8 8 9 10 13 13 12 10 9 8 7 8 10 10 9 9 10 9 11 13 9 8 8 8 8 8 8 8 8 8 9 9 10 9 8 8 7 8 7 6 5 5 5 7 7 6 7 7 7 7 7 7 7 7 6 7
8 13 14 11 11 10 12 12 12 11 12 13 12 9 11 11 12 12 12 12 12 15 16 15 15 15 14 15 13 11 11 12 13 13 17 21 20 14 12 11 9 10 11 15 12 9 10 9 8 9 9 10 9 9 10 10 10 10 11 10 10 11 10 9 9 9 8 7 6 6 6 7 7 6 7 7 6 7 7 7 7 7 6 6 7
10 7 9 6 7 9 8 9 10 12 15 13 10 7 3 7 14 12 10 13 15 14 14 14 12 11 11 11 13 14 16 14 17 21 21 24 26 29 25 20 16 14 15 19 13 10 10 10 11 11 11 11 11 11 12 11 11 11 12 12 11 11 11 11 10 10 9 8 7 7 8 7 7 7 7 7 7 7 7 7 6 5 5 6 7
8 7 6 7 8 8 9 10 11 10 10 10 11 8 5 7 12 10 2 11 17 19 16 15 17 16 14 13 12 10 10 16 24 24 24 25 26 24 23 23 21 19 19 15 12 10 10 10 11 12 12 12 11 12 11 11 8 8 11 12 12 11 9 11 11 8 7 9 8 7 7 7 7 6 7 7 7 7 7 6 7 6 7 7 7
6 6 4 6 8 6 5 10 11 11 10 10 10 10 9 8 4 9 12 3 14 15 17 15 18 15 14 12 11 7 10 17 21 22 24 26 25 24 24 26 25 23 20 17 8 9 9 10 10 11 11 11 11 11 11 11 11 11 10 9 11 11 11 10 10 10 9 9 6 6 6 6 7 8 8 6 5 6 6 6 5 5 6 7 7
2 3 4 9 6 5 7 6 3 6 9 10 10 9 10 9 9 6 6 12 5 7 12 14 16 15 14 11 14 15 14 17 22 22 21 22 21 23 25 26 24 22 19 11 7 9 10 12 12 11 12 9 12 12 12 11 11 11 11 10 8 11 11 11 10 10 8 9 9 5 4 4 5 7 4 6 5 4 4 4 4 5 7 7 6
3 3 4 8 7 9 9 7 8 6 5 5 7 9 9 10 10 9 7 6 5 7 9 5 6 10 7 9 13 13 15 18 20 22 22 22 21 20 21 19 23 27 26 17 12 10 13 12 12 12 12 12 11 11 11 11 11 11 10 10 10 10 10 11 11 10 9 7 8 5 6 6 7 6 5 5 6 5 3 4 5 5 6 7 6
3 4 4 3 5 5 5 4 5 7 9 10 9 8 8 8 8 9 8 9 10 8 7 4 6 8 7 7 9 14 16 16 17 18 20 20 19 19 18 13 10 8 10 9 12 12 13 12 13 12 12 12 12 11 12 12 11 10 10 10 10 10 10 10 10 10 10 9 9 7 7 8 9 7 5 5 5 4 4 4 7 8 9 7 6
5 4 4 3 2 7 3 0 3 5 6 8 9 9 8 8 8 7 7 7 9 8 6 6 7 7 13 12 14 15 17 19 19 20 19 20 19 22 15 13 13 14 14 12 12 11 10 11 12 12 12 11 11 10 11 10 10 10 9 9 8 9 10 10 10 9 10 10 8 6 8 8 9 5 6 5 7 6 4 5 6 6 8 7 4
4 3 3 2 3 1 1 1 2 1 2 3 6 6 6 7 7 7 7 7 7 6 8 9 8 6 6 4 9 13 15 16 18 19 20 22 26 19 15 16 16 15 13 14 12 11 10 8 10 10 11 10 10 9 8 9 10 10 10 9 9 11 10 10 10 8 7 7 6 9 9 7 8 8 6 5 5 5 6 7 6 5 4 4 4
7 7 7 7 3 2 0 0 2 4 3 3 5 6 6 6 7 7 7 7 9 10 10 8 7 9 9 7 9 9 9 11 15 15 16 18 15 13 11 12 12 14 13 13 13 12 9 9 10 10 10 10 9 9 8 8 10 10 8 9 11 10 7 7 9 9 6 6 6 5 7 7 6 5 5 6 6 6 6 5 5 4 4 5 5
6 8 10 11 8 5 2 2 3 3 3 3 4 5 6 6 7 7 7 7 8 9 9 10 10 9 8 9 8 11 15 11 10 8 7 11 11 11 11 12 12 12 12 10 10 8 9 11 9 9 8 8 8 8 8 9 9 9 10 9 10 9 5 5 6 5 5 6 7 7 6 6 6 6 6 7 7 6 5 5 5 5 5 5 5
6 5 7 10 4 5 4 2 2 2 4 4 4 5 5 7 7 7 8 8 8 8 9 9 11 10 10 11 11 10 10 11 10 11 10 11 11 11 10 11 12 12 12 11 11 11 9 9 10 10 10 9 7 7 9 9 9 8 8 4 3 3 5 6 6 6 6 6 6 6 6 6 6 7 7 7 7 6 6 6 5 5 5 5 5
6 6 5 5 4 5 4 3 2 1 3 3 4 5 6 6 7 7 8 8 8 9 8 9 10 11 11 13 16 15 11 12 12 12 13 13 12 12 12 11 11 11 12 11 10 11 10 10 9 10 10 9 9 8 5 5 7 10 10 9 6 7 7 7 5 5 5 5 6 6 6 7 7 7 7 7 7 7 6 6 6 6 5 5 5
6 6 6 6 6 5 5 5 4 4 3 3 3 4 4 5 5 6 6 7 7 8 7 6 6 8 11 19 17 14 9 7 10 12 12 12 12 12 11 11 11 10 10 10 10 9 10 10 9 8 8 6 6 7 8 8 9 11 7 4 5 5 6 6 6 5 5 6 6 6 6 6 6 7 7 7 6 7 6 6 5 5 5 6 6
6 6 6 6 6 5 5 4 4 4 4 4 3 3 3 4 4 4 5 5 6 7 6 7 7 7 11 14 14 13 10 9 7 9 11 13 12 12 10 10 11 10 9 8 9 9 8 8 6 5 5 6 6 5 5 6 6 6 8 7 7 6 6 6 6 6 6 6 6 6 5 6 6 7 7 6 6 5 6 5 5 5 5 5 5
6 6 7 6 5 6 6 5 6 6 6 7 6 6 5 4 4 4 5 5 5 5 6 7 7 9 10 10 9 10 10 11 11 10 9 9 11 10 8 7 8 8 8 8 7 7 7 7 6 5 5 7 8 8 8 9 10 9 5 5 6 5 6 6 6 6 7 7 6 5 6 6 6 7 6 6 5 6 5 5 5 5 6 5 5
6 6 6 6 6 6 5 6 6 6 6 5 5 5 5 5 5 5 5 6 6 6 6 7 8 9 9 9 5 4 8 10 9 10 9 9 9 7 7 9 9 7 6 6 5 7 7 6 6 4 7 7 7 6 8 10 9 9 8 8 5 6 6 5 5 5 5 6 7 7 7 8 8 7 6 6 5 5 6 5 6 7 5 5 6
6 5 6 5 6 6 6 6 4 5 4 5 5 5 5 5 5 5 5 6 6 7 6 7 7 8 7 6 4 5 6 8 8 7 7 6 6 6 6 6 7 7 7 6 6 7 7 7 6 5 5 6 8 9 8 6 6 7 8 8 8 8 8 8 8 6 5 6 6 6 7 6 6 7 7 6 6 7 6 5 5 6 6 5 6
5 4 4 5 6 7 6 5 5 5 5 6 5 5 5 5 6 6 4 7 7 7 7 6 7 8 6 5 6 6 6 7 6 7 6 5 6 6 6 7 8 6 5 6 8 9 9 8 6 3 5 7 9 8 8 8 7 6 6 7 7 8 8 8 9 9 9 9 6 6 6 6 6 6 6 6 7 6 5 6 6 5 6 6 6
4 5 5 4 4 5 6 6 6 4 5 5 6 6 5 5 5 6 5 6 6 6 5 6 6 6 6 5 5 6 6 6 7 6 6 6 5 3 5 7 6 6 6 5 5 5 5 6 7 6 5 3 2 6 6 5 5 6 6 6 7 7 8 10 9 9 9 9 7 6 5 5 5 6 6 6 6 5 6 6 6 7 6 6 6
4 5 5 5 5 5 4 4 6 6 5 5 5 6 6 6 6 5 6 6 6 6 5 5 5 6 5 5 6 5 6 6 6 6 5 5 5 5 3 5 5 5 5 7 7 8 8 7 5 5 5 4 4 4 4 3 1 4 5 5 5 9 10 10 7 9 9 7 6 8 8 7 5 5 5 5 6 6 5 5 5 6 6 6 6
5 5 4 4 5 6 4 4 4 4 5 5 5 5 5 5 5 6 6 6 6 6 6 6 6 5 6 6 6 6 5 6 6 6 5 5 5 5 4 4 5 5 6 7 6 6 6 6 7 7 5 6 7 7 6 5 5 3 3 5 9 12 11 10 5 5 10 5 7 5 7 5 5 4 4 4 4 4 5 5 5 5 5 5 5
11 10 9 7 5 2 3 4 4 4 4 5 5 5 4 5 5 5 5 6 6 6 6 6 6 7 6 5 5 6 5 6 5 5 5 5 5 5 5 5 4 4 4 5 6 6 6 6 6 7 8 6 9 9 8 8 7 8 5 10 13 12 12 10 7 3 2 1 4 4 4 4 5 5 5 4 4 5 5 6 4 5 6 6 6
Wind_Direction
194 196 195 198 194 197 196 193 199 204 208 208 208 206 206 204 205 201 191 201 202 198 195 195 195 197 195 196 198 195 192 193 197 200 190 200 200 204 206 202 209 214 217 214 216 217 220 223 222 220 212 196 200 200 201 201 203 217 227 217 224 214 221 229 237 185 123 100 140 161 138 180 205 227 227 183 165 197 217 226 210 236 249 264 176
195 193 195 194 193 195 196 197 199 203 208 209 208 209 205 203 202 194 198 203 203 199 193 196 192 194 197 198 199 192 195 194 195 195 192 201 197 197 211 200 210 216 214 215 206 206 207 211 205 199 189 200 197 197 199 194 196 203 206 223 213 215 205 227 225 208 153 148 161 143 173 216 243 188 244 194 223 257 261 257 211 223 248 286 171
193 192 192 194 193 193 193 196 197 199 204 209 209 208 203 200 198 196 200 203 204 200 195 194 191 193 196 197 194 188 191 194 191 195 196 202 201 201 213 206 209 215 210 209 205 202 205 206 205 189 181 200 195 201 196 189 196 201 205 205 215 212 201 220 225 228 159 152 168 198 187 196 232 208 194 208 226 247 245 236 223 226 240 222 272
190 189 191 193 191 190 193 195 197 198 203 207 210 206 202 198 197 195 201 206 200 200 198 197 195 197 197 198 195 188 189 191 189 191 202 204 203 204 200 189 196 205 209 206 208 202 202 201 202 182 185 192 190 193 186 186 198 194 198 197 207 202 213 199 210 37 120 162 202 210 176 184 214 248 201 187 202 206 236 264 256 257 247 252 222
194 189 188 188 188 190 189 191 196 198 202 206 208 206 204 198 194 194 200 204 199 199 200 199 198 198 197 196 197 190 188 188 187 193 205 205 205 202 194 191 194 202 208 207 209 204 199 201 196 183 185 189 186 189 178 187 190 189 186 191 189 184 177 167 149 147 175 201 180 219 161 183 204 230 223 222 202 213 218 226 240 261 244 242 278
209 190 187 187 187 190 190 191 195 198 201 205 209 206 204 203 196 193 201 203 201 200 203 198 199 198 198 199 200 195 191 188 187 198 205 202 201 200 192 193 193 208 206 207 205 202 199 199 196 186 188 189 184 183 180 179 191 180 188 194 181 149 147 152 170 185 217 209 183 187 162 207 194 211 238 217 277 280 258 233 209 229 248 251 253
211 196 189 189 189 190 192 192 192 197 200 203 205 204 201 200 198 198 199 199 199 200 202 200 197 200 199 201 202 198 195 192 194 195 204 201 198 191 186 189 204 213 208 204 203 199 200 199 195 189 190 189 181 182 174 176 183 180 184 190 154 160 165 183 196 194 204 201 185 190 189 205 214 210 221 216 243 268 265 264 266 248 213 246 262
203 194 190 190 191 192 193 193 193 195 196 201 203 201 202 201 202 200 194 196 199 202 202 200 193 199 202 202 201 197 190 188 196 198 202 195 188 181 179 182 194 196 203 202 200 197 198 199 195 190 191 188 181 179 170 174 173 177 175 162 163 169 184 190 197 191 199 201 193 194 206 187 198 237 144 148 233 236 232 268 294 300 295 286 278
202 193 192 193 193 193 193 194 193 192 194 200 203 203 201 200 196 193 191 198 201 205 203 197 193 200 203 201 200 200 194 191 195 198 196 183 177 175 177 182 188 195 198 199 198 197 196 198 194 190 190 183 176 171 169 170 174 173 166 173 174 182 193 192 191 195 199 196 201 204 197 193 199 198 207 215 225 266 102 180 279 283 280 285 286
210 196 194 194 193 194 195 193 190 190 191 199 202 202 199 197 197 193 189 196 203 206 203 195 195 198 201 198 197 197 195 197 180 175 174 173 171 172 173 179 198 206 197 197 197 197 195 195 192 179 146 128 116 111 114 93 52 52 169 177 178 183 194 195 193 202 200 198 211 201 203 197 213 200 211 217 234 287 269 256 258 272 286 280 280
215 203 199 194 193 193 193 191 190 190 193 199 201 201 197 191 192 197 191 194 203 204 203 195 193 197 201 199 196 194 189 181 152 158 163 164 167 169 172 178 204 204 197 197 195 194 193 192 166 123 130 126 122 121 120 106 93 65 55 59 46 169 199 194 203 204 201 207 206 203 206 214 213 198 210 222 207 232 248 260 286 285 283 306 304
216 209 201 195 194 195 193 189 190 191 192 195 200 198 192 192 193 190 189 194 200 203 202 197 191 194 203 198 193 184 184 139 152 152 159 164 166 167 169 177 191 199 197 197 195 193 193 189 168 163 161 164 150 139 133 119 102 84 81 75 74 57 46 44 214 199 206 211 205 198 213 221 207 195 213 213 214 208 227 244 253 272 279 287 302
215 206 200 197 196 197 193 189 189 190 190 192 195 197 193 189 194 193 189 188 196 203 200 198 193 196 200 197 189 179 171 150 153 158 160 165 162 163 170 176 184 193 196 197 196 193 192 187 175 177 175 156 162 169 167 141 91 90 96 118 95 72 48 43 34 12 220 213 220 205 219 227 209 195 212 224 202 283 300 270 263 267 298 295 297
210 204 199 197 197 194 192 190 191 190 189 191 193 193 191 195 192 193 188 183 197 203 201 196 196 194 200 200 189 176 164 159 159 163 163 164 164 169 171 175 183 193 195 198 196 195 190 187 174 176 170 168 178 174 172 168 165 159 173 194 187 126 106 83 11 17 13 349 272 236 194 233 229 203 136 152 197 242 253 268 304 303 298 304 307
209 205 200 197 196 193 192 191 191 189 188 189 190 192 192 195 191 184 176 186 196 200 196 192 194 196 199 200 187 179 159 162 163 166 165 165 169 176 176 175 186 196 197 197 197 193 188 187 179 178 173 175 182 176 171 169 168 171 180 183 196 193 193 196 187 188 196 232 293 277 221 174 220 162 157 167 213 247 286 308 315 303 291 280 272
209 205 205 198 195 192 191 192 192 188 187 188 190 193 194 191 190 187 178 189 197 198 187 192 198 197 196 197 185 179 153 165 165 166 166 167 169 175 185 196 196 196 194 194 194 193 188 187 182 181 176 180 171 169 172 165 167 170 173 175 188 189 197 152 136 85 49 23 37 41 45 39 49 58 39 29 159 191 242 248 250 252 258 265 274
212 203 203 201 198 193 192 191 190 189 187 188 189 192 192 193 191 179 174 182 192 188 184 192 198 191 193 202 189 176 155 171 165 166 167 166 165 176 180 184 183 193 189 191 195 192 190 187 186 185 174 182 155 167 166 159 168 170 163 178 188 190 191 137 92 107 105 96 94 84 85 83 72 76 72 55 50 20 316 296 271 270 282 292 298
218 209 207 205 198 195 194 192 190 188 187 189 189 191 192 192 191 181 182 185 182 181 184 195 197 192 195 203 196 176 157 169 167 167 166 168 169 171 182 191 183 184 187 189 192 191 192 185 189 189 180 172 151 163 159 165 170 166 174 179 184 193 189 163 164 149 107 123 128 135 134 77 78 113 114 115 117 250 244 256 281 304 292 287 290
220 221 211 203 200 198 196 196 192 189 190 188 185 191 190 190 182 173 183 182 179 181 187 195 197 191 200 206 194 174 150 166 169 166 168 170 171 170 174 178 181 182 183 185 190 192 187 176 192 197 188 145 155 157 164 170 170 168 181 184 186 191 189 170 174 179 187 206 216 205 206 179 202 226 198 184 174 192 234 255 272 270 276 284 295
209 219 219 208 203 199 199 198 194 190 189 189 188 191 185 176 157 172 185 190 180 178 191 194 193 199 200 203 191 179 150 159 172 167 170 172 174 170 172 177 181 180 182 180 185 193 185 180 183 169 133 147 156 158 166 174 181 175 182 189 190 190 184 182 179 180 181 194 203 205 220 223 221 223 232 192 189 204 220 238 249 261 266 272 277
210 208 219 211 208 210 207 208 206 198 194 188 183 185 180 167 171 178 182 184 177 184 188 195 199 201 196 196 188 188 160 157 170 171 171 174 178 174 171 178 178 177 183 178 186 186 180 181 179 130 150 150 156 161 165 184 212 187 187 196 199 175 166 186 168 161 187 187 202 204 205 213 216 219 219 220 205 204 213 225 236 244 254 264 276
213 212 208 209 210 210 211 205 202 201 192 182 168 165 158 169 179 182 186 185 167 178 183 193 197 198 196 194 188 191 158 160 160 178 174 176 181 178 168 177 177 176 179 183 180 178 187 177 162 140 142 153 160 164 168 180 200 234 178 106 102 123 168 193 175 180 203 198 201 207 209 210 214 217 219 219 219 211 211 214 219 231 241 250 262
212 211 209 207 206 207 205 200 191 193 174 171 166 160 169 179 183 184 185 182 168 165 175 187 194 193 195 185 187 193 171 158 157 170 179 180 184 182 174 170 164 164 178 176 178 180 179 160 132 144 151 164 162 167 169 180 193 146 112 125 110 111 173 204 181 182 198 209 208 214 216 220 221 219 218 224 225 222 220 218 216 218 226 237 245
214 209 207 207 203 202 201 197 182 173 156 154 163 162 174 182 185 182 180 174 165 168 178 186 182 173 183 186 183 186 147 154 162 167 175 185 191 185 175 160 155 171 167 170 179 177 170 171 150 155 155 161 164 165 175 179 183 135 134 124 137 150 190 208 193 198 201 210 214 222 226 224 228 230 227 225 228 223 220 224 227 221 232 242 250
226 211 207 204 200 199 197 185 174 176 154 154 165 177 182 187 183 173 182 177 178 176 174 173 180 181 182 185 184 183 145 150 155 171 171 181 191 196 175 156 154 148 160 169 165 179 153 125 145 153 156 160 163 165 171 183 184 135 140 149 159 176 198 214 205 206 212 216 218 218 225 230 231 237 240 241 230 231 240 231 231 243 256 264 265
250 220 211 205 200 195 185 179 177 177 157 165 171 183 188 187 182 178 175 191 187 183 182 181 185 188 190 184 176 187 172 137 152 162 173 180 184 190 167 176 153 159 155 140 136 111 125 139 149 151 152 154 151 157 166 176 189 149 152 159 194 200 204 208 214 209 214 215 221 226 226 226 225 227 231 237 248 242 233 237 239 241 240 244 251
257 244 213 204 194 186 181 181 180 173 162 159 172 185 184 178 173 175 189 189 183 178 171 181 188 188 189 176 182 173 167 142 138 139 157 161 175 175 170 181 153 129 105 108 108 118 128 138 152 157 155 160 157 155 157 156 160 155 179 190 209 214 210 212 212 216 217 223 220 222 226 233 240 231 222 217 226 236 241 244 244 249 250 255 263
244 237 214 199 193 185 190 171 171 172 173 179 186 185 169 163 171 181 188 186 185 174 176 185 188 183 181 182 159 137 143 140 155 164 171 165 162 161 164 169 169 161 142 134 125 127 128 125 133 136 134 147 155 165 171 171 176 183 193 198 208 217 223 226 232 228 227 226 233 231 232 227 231 232 228 227 223 225 228 232 238 247 250 260 267
283 251 227 202 197 189 185 165 176 173 177 183 186 176 168 175 182 182 184 188 188 186 186 185 186 188 187 185 175 167 173 180 187 179 171 169 166 164 169 176 173 168 150 134 127 122 125 137 141 149 161 167 172 176 180 182 186 189 197 200 201 205 210 212 214 219 226 227 222 219 230 235 232 230 232 234 227 232 232 229 228 242 255 268 271
256 269 285 248 211 197 185 167 171 173 178 179 176 146 79 174 190 191 185 184 172 169 172 180 180 176 180 184 178 175 184 189 162 168 174 175 175 174 173 166 161 157 145 143 141 144 152 158 166 168 170 177 178 183 185 189 190 192 195 203 206 205 208 212 216 218 216 219 219 216 224 230 230 225 230 234 238 236 234 235 249 253 265 266 267
250 244 219 258 246 195 185 176 177 173 173 166 162 149 134 50 41 41 7 176 170 175 184 183 176 184 186 190 185 191 180 154 161 172 170 176 177 174 165 161 161 158 157 151 160 161 170 171 173 176 174 179 182 186 187 189 192 193 195 195 207 211 210 213 213 214 211 208 216 229 225 224 233 235 237 236 237 238 236 222 222 230 238 249 255
241 245 250 228 246 207 183 177 178 179 171 165 156 150 142 134 94 39 23 146 166 170 180 174 174 177 176 167 164 145 132 156 164 168 174 175 174 170 167 163 164 166 166 158 162 167 175 171 175 176 176 180 182 188 190 191 190 197 199 196 198 206 211 216 213 211 205 208 210 213 225 226 224 227 234 239 241 244 247 246 241 245 258 262 276
203 247 249 247 224 223 179 164 146 160 156 159 162 152 153 155 155 156 47 30 65 158 172 169 170 173 173 165 165 168 159 160 163 168 171 175 174 173 169 164 159 157 152 167 188 170 179 178 180 179 181 187 184 189 192 193 193 196 202 201 198 199 208 213 211 213 212 209 205 205 201 218 235 236 233 236 237 245 251 265 258 262 265 263 262
169 175 215 249 201 208 230 174 148 150 161 158 159 157 162 169 172 157 144 146 74 45 43 44 170 152 136 144 151 141 144 156 165 168 167 169 171 170 163 160 160 161 169 177 178 179 182 183 182 184 184 188 186 184 189 196 198 199 202 204 202 202 202 207 207 210 215 213 209 203 193 209 216 223 227 228 234 236 232 242 252 261 264 267 270
28 85 63 37 296 272 212 197 179 176 176 171 169 161 153 160 153 158 166 164 164 167 174 126 94 128 119 119 126 134 141 145 153 161 162 162 159 152 139 132 138 155 186 194 181 182 185 187 184 186 184 186 189 183 187 193 198 201 202 203 204 203 204 213 211 207 210 217 216 210 201 206 213 213 213 221 225 215 224 236 244 245 246 246 253
21 23 25 44 32 322 347 119 191 180 181 180 178 179 158 156 156 173 172 165 171 166 130 120 132 141 141 146 145 143 146 152 152 150 150 152 149 146 154 168 166 172 178 183 187 185 186 190 186 186 187 184 187 186 186 190 197 200 205 203 206 215 206 202 200 218 225 218 212 215 210 209 212 213 217 222 211 213 228 235 240 244 253 260 266
24 25 22 49 103 127 317 306 184 152 102 120 144 150 154 156 165 167 166 164 144 129 129 131 126 87 74 86 134 139 146 149 149 149 151 153 159 165 173 172 176 171 178 180 180 183 189 189 188 183 186 180 181 184 186 190 194 204 203 194 212 220 216 211 222 203 199 220 213 208 215 214 211 212 214 210 213 225 235 241 241 242 247 266 290
27 9 2 9 25 64 218 117 55 83 106 119 145 149 150 152 161 163 160 155 143 141 141 146 154 164 157 150 148 139 129 123 125 137 150 154 162 176 175 176 174 176 178 180 180 184 178 186 193 188 183 181 178 178 183 196 208 213 196 194 220 224 208 221 233 223 201 199 207 217 213 212 208 206 202 212 225 227 227 228 234 236 235 229 239
21 62 27 358 9 357 37 94 140 149 128 124 133 142 146 149 152 156 156 148 151 150 154 160 172 169 155 142 139 127 118 129 147 157 160 172 174 176 175 175 180 184 185 176 171 176 184 193 171 178 179 185 199 184 188 205 207 209 216 212 209 206 201 228 229 220 209 203 203 212 208 201 203 209 213 218 218 223 228 229 221 230 242 242 233
20 18 26 350 2 28 19 39 111 129 133 139 139 147 150 157 162 155 156 149 156 164 170 166 175 175 152 153 148 148 139 143 154 158 160 169 181 185 181 185 187 179 175 176 179 191 186 183 173 178 192 204 203 199 211 205 206 208 217 211 196 209 225 221 221 214 212 212 205 200 202 205 211 214 216 216 218 208 213 221 228 233 237 245 254
23 35 37 36 2 5 32 29 46 100 150 149 152 167 177 173 171 169 164 159 162 171 175 178 179 169 161 160 159 159 144 153 156 162 169 174 179 187 187 184 183 178 180 180 175 184 183 185 179 175 182 198 198 199 201 187 198 220 205 189 209 217 209 214 211 208 209 199 191 201 204 209 213 216 215 214 210 215 211 214 217 221 226 232 239
20 23 28 26 26 30 29 26 34 37 50 82 138 166 164 161 164 171 164 161 163 171 170 163 144 149 146 149 157 151 137 140 157 162 163 164 177 186 187 180 186 177 175 185 186 179 181 180 179 180 180 173 194 197 178 180 204 233 262 252 214 215 216 208 210 203 205 200 196 202 210 216 212 217 216 214 209 210 221 220 219 218 227 224 221
30 34 32 33 31 45 46 43 37 41 51 56 67 65 107 153 161 140 143 155 163 167 156 142 134 115 136 152 153 145 136 137 151 166 166 164 170 176 184 178 178 177 174 178 193 187 164 171 152 135 133 161 180 208 201 170 189 214 216 210 211 207 202 210 206 197 198 204 204 200 208 219 217 216 216 212 214 216 214 215 219 231 235 234 236
34 37 45 41 33 31 38 55 53 53 57 56 56 51 66 63 72 111 139 139 137 122 123 129 127 129 137 153 159 159 157 154 160 167 168 170 170 173 179 156 148 157 162 163 142 140 142 146 128 144 181 175 165 194 207 200 202 206 204 199 198 199 198 206 205 197 196 201 207 203 202 212 220 220 217 212 210 216 223 223 222 222 226 229 227
29 34 34 41 39 42 42 55 68 80 83 80 80 81 75 85 96 106 110 113 103 102 101 117 125 133 141 151 161 164 140 143 145 153 166 167 156 142 121 128 135 133 120 120 124 111 109 106 123 167 226 176 166 189 215 201 204 200 201 198 196 193 195 198 205 199 192 195 205 209 209 202 208 215 216 211 214 217 220 219 222 230 229 236 234
23 24 46 54 50 49 46 52 51 63 67 82 75 68 79 83 86 84 90 92 96 104 103 110 121 133 142 139 109 91 117 127 132 134 134 123 118 122 134 131 128 131 139 139 141 140 140 153 163 199 173 156 187 193 212 201 192 197 193 193 192 192 196 200 204 210 207 191 202 208 206 202 202 209 214 220 218 215 221 222 221 217 223 226 233
31 42 19 56 67 64 56 59 55 52 60 65 74 76 71 77 81 76 64 77 87 100 109 117 123 132 133 123 120 122 116 115 121 129 133 134 140 137 143 141 137 135 149 161 157 167 178 184 168 155 137 181 188 181 179 185 187 187 183 187 191 191 195 198 200 203 204 195 198 212 203 202 198 206 206 214 229 217 204 212 221 221 217 219 223
32 21 32 38 47 70 85 85 89 84 78 69 73 77 79 82 82 82 88 90 91 97 105 117 124 124 124 115 108 104 105 108 116 114 117 120 110 97 115 120 128 141 159 155 136 116 130 158 151 159 129 102 124 160 172 180 178 178 186 192 193 191 185 184 195 190 196 191 196 206 213 204 208 204 206 196 210 226 217 209 211 221 221 221 224
58 59 37 31 39 28 37 54 82 82 86 100 107 110 107 102 97 92 90 90 100 107 111 109 114 118 118 112 109 109 110 119 121 121 114 110 120 135 141 133 141 156 150 147 157 158 168 155 147 133 136 131 125 115 116 120 137 213 189 198 190 163 156 174 209 182 180 184 193 204 210 208 210 205 203 191 188 213 230 236 218 214 215 216 215
19 61 88 65 54 49 28 29 40 82 90 93 89 97 103 104 105 108 112 108 106 105 111 108 109 109 108 104 103 100 97 105 111 117 116 114 110 116 123 137 153 155 144 144 147 151 150 148 150 152 155 168 170 167 177 173 200 200 221 205 141 143 149 167 80 88 169 184 189 200 203 208 212 215 215 201 175 194 222 231 233 228 222 216 211
14 8 15 17 28 42 60 65 56 54 69 85 90 89 84 93 105 107 100 93 90 91 94 108 115 116 115 112 104 108 108 108 102 100 112 122 131 134 144 141 147 143 143 144 153 159 166 161 166 167 174 179 180 182 188 194 197 214 190 134 148 151 154 170 164 163 218 268 196 196 205 206 207 214 217 225 213 202 205 222 229 231 231 223 217